When you browse on this site, cookies collect data to enhance your experience and personalize the content and advertising you see.
Visit our Privacy Policy to learn more. By continuing to use the site, you agree to this use of cookies and data.
  • In Latvia
  • List of Countries
  • For 7 days
  • Water Temperature
  • Weather Map
  • Weather Widgets
  • user-avatar
    Login

    Hourly Weather Kinshasa

    Today, 30 May, Saturday

    Time Temperature Precipitation Wind Pressure Humidity
    00:00 +23°C° 0.3 mm 1 mps 707 mmHg 97%
    01:00 +23°C° 0 mm 1 mps 707 mmHg 96%
    02:00 +23°C° 0 mm 1 mps 707 mmHg 96%
    03:00 +21°C° 0 mm 0 mps 707 mmHg 95%
    04:00 +21°C° 0 mm 0 mps 707 mmHg 95%
    05:00 +21°C° 0.1 mm 0 mps 707 mmHg 95%
    06:00 +22°C° 0.1 mm 0 mps 708 mmHg 94%
    07:00 +22°C° 0 mm 0 mps 708 mmHg 94%
    08:00 +25°C° 0.3 mm 1 mps 708 mmHg 90%
    09:00 +27°C° 0.3 mm 1 mps 708 mmHg 85%
    10:00 +28°C° 0.3 mm 1 mps 709 mmHg 81%
    11:00 +28°C° 1.3 mm 1 mps 708 mmHg 82%
    12:00 +28°C° 1.3 mm 2 mps 708 mmHg 84%
    13:00 +29°C° 1.3 mm 2 mps 708 mmHg 86%
    14:00 +28°C° 0.7 mm 1 mps 707 mmHg 88%
    15:00 +27°C° 0.7 mm 1 mps 707 mmHg 91%
    16:00 +26°C° 0.7 mm 1 mps 706 mmHg 94%
    17:00 +23°C° 0 mm 0 mps 706 mmHg 95%
    18:00 +22°C° 0 mm 0 mps 706 mmHg 95%
    19:00 +22°C° 0 mm 0 mps 707 mmHg 96%
    20:00 +21°C° 0 mm 0 mps 707 mmHg 96%
    21:00 +21°C° 0 mm 0 mps 707 mmHg 97%
    22:00 +21°C° 0 mm 0 mps 708 mmHg 97%
    23:00 +21°C° 0 mm 0 mps 708 mmHg 97%

    Tomorrow, 31 May, Sunday

    Time Temperature Precipitation Wind Pressure Humidity
    00:00 +20°C° 0 mm 0 mps 708 mmHg 97%
    01:00 +20°C° 0 mm 0 mps 708 mmHg 97%
    02:00 +20°C° 0 mm 0 mps 708 mmHg 97%
    03:00 +20°C° 0 mm 0 mps 708 mmHg 97%
    04:00 +20°C° 0 mm 0 mps 707 mmHg 97%
    05:00 +20°C° 0 mm 0 mps 708 mmHg 97%
    06:00 +21°C° 0 mm 0 mps 708 mmHg 97%
    07:00 +21°C° 0 mm 0 mps 709 mmHg 97%
    08:00 +23°C° 0 mm 0 mps 709 mmHg 88%
    09:00 +27°C° 0 mm 1 mps 709 mmHg 80%
    10:00 +29°C° 0 mm 1 mps 709 mmHg 71%
    11:00 +30°C° 0.2 mm 1 mps 709 mmHg 70%
    12:00 +30°C° 0.2 mm 1 mps 709 mmHg 69%
    13:00 +31°C° 0.2 mm 1 mps 708 mmHg 68%
    14:00 +31°C° 0 mm 1 mps 708 mmHg 68%
    15:00 +31°C° 0 mm 1 mps 707 mmHg 69%
    16:00 +31°C° 0 mm 1 mps 706 mmHg 70%
    17:00 +29°C° 0.1 mm 1 mps 707 mmHg 75%
    18:00 +27°C° 0.1 mm 1 mps 707 mmHg 80%
    19:00 +23°C° 0.1 mm 0 mps 707 mmHg 85%
    20:00 +23°C° 0.8 mm 0 mps 708 mmHg 88%
    21:00 +22°C° 0.8 mm 0 mps 708 mmHg 90%
    22:00 +21°C° 0.8 mm 0 mps 708 mmHg 93%
    23:00 +21°C° 0.6 mm 0 mps 708 mmHg 94%

    Day after tomorrow, 1 June, Monday

    Time Temperature Precipitation Wind Pressure Humidity
    00:00 +21°C° 0.6 mm 0 mps 709 mmHg 94%
    01:00 +21°C° 0.6 mm 0 mps 709 mmHg 95%
    02:00 +21°C° 0 mm 0 mps 708 mmHg 95%
    03:00 +21°C° 0 mm 0 mps 708 mmHg 94%
    04:00 +21°C° 0 mm 0 mps 708 mmHg 94%
    05:00 +21°C° 0 mm 0 mps 708 mmHg 94%
    06:00 +21°C° 0 mm 0 mps 709 mmHg 94%
    07:00 +21°C° 0 mm 0 mps 709 mmHg 94%
    08:00 +24°C° 0 mm 1 mps 709 mmHg 92%
    09:00 +24°C° 0 mm 2 mps 710 mmHg 90%
    10:00 +25°C° 0 mm 3 mps 710 mmHg 88%
    11:00 +27°C° 0 mm 2 mps 710 mmHg 81%
    12:00 +28°C° 0 mm 2 mps 709 mmHg 73%
    13:00 +30°C° 0 mm 2 mps 709 mmHg 65%
    14:00 +30°C° 0 mm 1 mps 708 mmHg 66%
    15:00 +30°C° 0 mm 1 mps 707 mmHg 66%
    16:00 +30°C° 0 mm 1 mps 707 mmHg 67%
    17:00 +28°C° 0 mm 1 mps 707 mmHg 73%
    18:00 +27°C° 0 mm 1 mps 707 mmHg 80%
    19:00 +25°C° 0 mm 1 mps 707 mmHg 87%
    20:00 +22°C° 0 mm 0 mps 707 mmHg 88%
    21:00 +22°C° 0 mm 0 mps 708 mmHg 90%
    22:00 +21°C° 0 mm 0 mps 708 mmHg 91%
    23:00 +21°C° 0 mm 0 mps 708 mmHg 91%

    2 June, Tuesday

    Time Temperature Precipitation Wind Pressure Humidity
    00:00 +21°C° 0 mm 0 mps 708 mmHg 90%
    01:00 +21°C° 0 mm 0 mps 708 mmHg 90%
    02:00 +20°C° 0 mm 0 mps 708 mmHg 90%
    03:00 +20°C° 0 mm 0 mps 708 mmHg 90%
    04:00 +20°C° 0 mm 0 mps 707 mmHg 90%
    05:00 +21°C° 0 mm 0 mps 708 mmHg 89%
    06:00 +21°C° 0 mm 0 mps 708 mmHg 88%
    07:00 +21°C° 0 mm 0 mps 708 mmHg 88%
    08:00 +25°C° 0 mm 1 mps 709 mmHg 82%
    09:00 +27°C° 0 mm 1 mps 709 mmHg 75%
    10:00 +29°C° 0 mm 1 mps 709 mmHg 69%
    11:00 +30°C° 0 mm 1 mps 709 mmHg 66%
    12:00 +32°C° 0 mm 1 mps 708 mmHg 62%
    13:00 +33°C° 0 mm 1 mps 708 mmHg 59%
    14:00 +32°C° 0.1 mm 1 mps 707 mmHg 62%
    15:00 +30°C° 0.1 mm 0 mps 707 mmHg 65%
    16:00 +29°C° 0.1 mm 0 mps 706 mmHg 68%
    17:00 +27°C° 0.1 mm 0 mps 706 mmHg 73%
    18:00 +25°C° 0.1 mm 0 mps 706 mmHg 78%
    19:00 +23°C° 0.1 mm 0 mps 707 mmHg 83%
    20:00 +23°C° 0.1 mm 0 mps 707 mmHg 84%
    21:00 +22°C° 0.1 mm 0 mps 707 mmHg 85%
    22:00 +22°C° 0.1 mm 0 mps 708 mmHg 86%
    23:00 +23°C° 0.2 mm 1 mps 708 mmHg 89%

    3 June, Wednesday

    Time Temperature Precipitation Wind Pressure Humidity
    00:00 +23°C° 0.2 mm 1 mps 707 mmHg 91%
    01:00 +23°C° 0.2 mm 1 mps 707 mmHg 93%
    02:00 +22°C° 0 mm 1 mps 707 mmHg 94%
    03:00 +22°C° 0 mm 1 mps 707 mmHg 95%
    04:00 +22°C° 0 mm 1 mps 707 mmHg 96%
    05:00 +22°C° 0.5 mm 1 mps 707 mmHg 97%
    06:00 +23°C° 0.5 mm 1 mps 707 mmHg 97%
    07:00 +23°C° 0.5 mm 1 mps 708 mmHg 98%
    08:00 +24°C° 0 mm 1 mps 708 mmHg 93%
    09:00 +25°C° 0 mm 1 mps 709 mmHg 89%
    10:00 +27°C° 0 mm 2 mps 709 mmHg 84%
    11:00 +28°C° 0 mm 1 mps 708 mmHg 77%
    12:00 +30°C° 0 mm 1 mps 708 mmHg 70%
    13:00 +31°C° 0 mm 1 mps 707 mmHg 63%
    14:00 +31°C° 0 mm 1 mps 707 mmHg 65%
    15:00 +31°C° 0 mm 1 mps 706 mmHg 67%
    16:00 +30°C° 0 mm 1 mps 706 mmHg 68%
    17:00 +29°C° 0 mm 1 mps 706 mmHg 74%
    18:00 +27°C° 0 mm 1 mps 706 mmHg 79%
    19:00 +25°C° 0 mm 1 mps 706 mmHg 84%
    20:00 +24°C° 0 mm 1 mps 706 mmHg 86%
    21:00 +24°C° 0 mm 1 mps 707 mmHg 87%
    22:00 +23°C° 0 mm 1 mps 707 mmHg 88%
    23:00 +23°C° 0.3 mm 1 mps 707 mmHg 90%

    4 June, Thursday

    Time Temperature Precipitation Wind Pressure Humidity
    00:00 +23°C° 0.3 mm 1 mps 707 mmHg 92%
    01:00 +22°C° 0.3 mm 1 mps 707 mmHg 94%
    02:00 +22°C° 0.4 mm 1 mps 707 mmHg 96%
    03:00 +22°C° 0.4 mm 1 mps 707 mmHg 97%
    04:00 +22°C° 0.4 mm 1 mps 707 mmHg 98%
    05:00 +22°C° 0 mm 1 mps 707 mmHg 98%
    06:00 +23°C° 0 mm 1 mps 708 mmHg 97%
    07:00 +23°C° 0 mm 1 mps 708 mmHg 96%
    08:00 +25°C° 0 mm 1 mps 708 mmHg 88%
    09:00 +27°C° 0 mm 1 mps 709 mmHg 80%
    10:00 +29°C° 0 mm 1 mps 709 mmHg 72%
    11:00 +30°C° 0 mm 1 mps 709 mmHg 68%
    12:00 +32°C° 0 mm 1 mps 708 mmHg 64%
    13:00 +31°C° 0 mm 0 mps 708 mmHg 60%
    14:00 +32°C° 0.6 mm 1 mps 707 mmHg 66%
    15:00 +31°C° 0.6 mm 1 mps 707 mmHg 72%
    16:00 +30°C° 0.6 mm 1 mps 706 mmHg 78%
    17:00 +28°C° 0 mm 1 mps 706 mmHg 82%
    18:00 +26°C° 0 mm 1 mps 706 mmHg 86%
    19:00 +25°C° 0 mm 1 mps 707 mmHg 89%
    20:00 +24°C° 0 mm 1 mps 707 mmHg 91%
    21:00 +24°C° 0 mm 1 mps 707 mmHg 93%
    22:00 +23°C° 0 mm 1 mps 707 mmHg 94%
    23:00 +23°C° 0.1 mm 1 mps 707 mmHg 95%
    Show more